Camdenton, MO

10:38 PM CDT on May 26, 2018 (GMT -0500)
Camdenton

Weather History for KH21 - August, 2014

Change the Weather History Date:

Monday, August 11, 2014

  Actual Average (KAIZ) Record (KAIZ)
Temperature  
Mean Temperature 76 °F -  
Max Temperature 82 °F 84 °F 102 °F (2007)
Min Temperature 69 °F 63 °F 53 °F (2012)
Cooling Degree Days 10    
Growing Degree Days 26 (Base 50)    
Moisture  
Dew Point 67 °F    
Average Humidity 80    
Maximum Humidity 100    
Minimum Humidity 58    
Precipitation  
Precipitation 0.12 in - - ()
Sea Level Pressure  
Sea Level Pressure 30.02 in    
Wind  
Wind Speed 7 mph (WNW)    
Max Wind Speed 14 mph    
Max Gust Speed 23 mph    
Visibility 7 miles    
Events Rain    
Averages and records for this station are not official NWS values.
T = Trace of Precipitation, MM = Missing Value Source: NWS Daily Summary

Daily Weather History Graph

Daily Weather History Graph

Search for Another Location

Airport or City:

Astronomy

Aug. 11, 2014 Rise Set
Actual Time 6:22 AM CDT 8:08 PM CDT
Civil Twilight 5:54 AM CDT 8:37 PM CDT
Nautical Twilight 5:19 AM CDT 9:11 PM CDT
Astronomical Twilight 4:43 AM CDT 9:47 PM CDT
Moon 8:40 PM CDT (8/11) 7:26 AM CDT (8/11)
Length of Visible Light 14h 42m
Length of Day
13h 46m
Full, 99% of the Moon is Illuminated
Aug 11
Full
Aug 17
Last Quarter
Aug 25
New
Sep 2
First Quarter
Sep 8
Full

Hourly Weather History & Observations

Time (CDT) Temp. Heat Index Dew Point Humidity Pressure Visibility Wind Dir Wind Speed Gust Speed Precip Events Conditions
12:15 AM 71.6 °F - 69.8 °F 94% 30.02 in 7.0 mi NW 4.6 mph - N/A   Overcast
12:35 AM 71.6 °F - 69.8 °F 94% 30.01 in 7.0 mi NW 6.9 mph - N/A   Overcast
12:55 AM 71.6 °F - 69.8 °F 94% 30.01 in 5.0 mi NNW 8.1 mph - N/A Rain Heavy Rain
1:15 AM 71.6 °F - 69.8 °F 94% 30.01 in 3.0 mi NNW 5.8 mph - 0.05 in Rain Heavy Rain
1:35 AM 71.6 °F - 69.8 °F 94% 30.00 in 4.0 mi NNW 5.8 mph - 0.09 in Rain Heavy Rain
1:55 AM 71.6 °F - 69.8 °F 94% 30.00 in 4.0 mi NNW 4.6 mph - 0.11 in Rain Light Rain
2:15 AM 71.6 °F - 69.8 °F 94% 30.00 in 4.0 mi Calm Calm - 0.01 in Rain Rain
2:35 AM 71.6 °F - 69.8 °F 94% 30.00 in 5.0 mi NNW 3.5 mph - 0.01 in   Overcast
3:15 AM 71.6 °F - 69.8 °F 94% 29.99 in 4.0 mi West 3.5 mph - N/A   Overcast
3:35 AM 71.6 °F - 69.8 °F 94% 29.99 in 3.0 mi Calm Calm - N/A   Overcast
3:55 AM 69.8 °F - 69.8 °F 100% 29.99 in 3.0 mi West 4.6 mph - N/A   Overcast
4:15 AM 69.8 °F - 69.8 °F 100% 29.99 in 2.0 mi West 5.8 mph - N/A   Overcast
4:35 AM 69.8 °F - 69.8 °F 100% 29.99 in 1.8 mi West 4.6 mph - N/A   Overcast
4:55 AM 69.8 °F - 69.8 °F 100% 30.00 in 2.5 mi West 4.6 mph - N/A   Overcast
5:15 AM 69.8 °F - 69.8 °F 100% 30.01 in 3.0 mi West 5.8 mph - N/A   Overcast
5:35 AM 69.8 °F - 68.0 °F 94% 30.01 in 4.0 mi WNW 6.9 mph - N/A   Overcast
5:55 AM 69.8 °F - 68.0 °F 94% 30.01 in 3.0 mi WNW 4.6 mph - N/A   Overcast
6:15 AM 69.8 °F - 69.8 °F 100% 30.01 in 3.0 mi West 3.5 mph - N/A   Overcast
6:35 AM 69.8 °F - 68.0 °F 94% 30.02 in 3.0 mi West 5.8 mph - N/A   Overcast
6:55 AM 69.8 °F - 68.0 °F 94% 30.02 in 3.0 mi West 5.8 mph - N/A   Overcast
7:15 AM 69.8 °F - 68.0 °F 94% 30.03 in 3.0 mi West 4.6 mph - N/A   Overcast
7:35 AM 69.8 °F - 68.0 °F 94% 30.03 in 4.0 mi West 5.8 mph - N/A   Overcast
7:55 AM 69.8 °F - 68.0 °F 94% 30.04 in 4.0 mi West 6.9 mph - N/A   Overcast
8:15 AM 69.8 °F - 68.0 °F 94% 30.04 in 4.0 mi WNW 6.9 mph - N/A   Overcast
8:35 AM 69.8 °F - 68.0 °F 94% 30.04 in 4.0 mi WNW 6.9 mph - N/A   Overcast
8:55 AM 69.8 °F - 68.0 °F 94% 30.05 in 4.0 mi West 5.8 mph - N/A   Overcast
9:15 AM 71.6 °F - 68.0 °F 88% 30.04 in 7.0 mi WNW 6.9 mph - N/A   Mostly Cloudy
9:35 AM 73.4 °F - 68.0 °F 83% 30.04 in 7.0 mi West 5.8 mph - N/A   Scattered Clouds
9:55 AM 73.4 °F - 68.0 °F 83% 30.04 in 7.0 mi WNW 6.9 mph - N/A   Mostly Cloudy
10:15 AM 73.4 °F - 68.0 °F 83% 30.05 in 7.0 mi WNW 5.8 mph - N/A   Mostly Cloudy
10:35 AM 73.4 °F - 68.0 °F 83% 30.05 in 10.0 mi West 8.1 mph - N/A   Overcast
10:55 AM 75.2 °F - 68.0 °F 78% 30.05 in 10.0 mi West 9.2 mph - N/A   Mostly Cloudy
11:15 AM 75.2 °F - 68.0 °F 78% 30.05 in 10.0 mi NNW 4.6 mph - N/A   Mostly Cloudy
11:35 AM 77.0 °F - 68.0 °F 74% 30.05 in 10.0 mi NW 9.2 mph - N/A   Mostly Cloudy
11:55 AM 77.0 °F - 68.0 °F 74% 30.05 in 10.0 mi WNW 5.8 mph - N/A   Overcast
12:15 PM 77.0 °F - 68.0 °F 74% 30.05 in 10.0 mi WNW 6.9 mph - N/A   Mostly Cloudy
12:35 PM 77.0 °F - 66.2 °F 69% 30.04 in 10.0 mi NW 6.9 mph - N/A   Mostly Cloudy
12:55 PM 78.8 °F - 64.4 °F 61% 30.04 in 10.0 mi WNW 9.2 mph 17.3 mph N/A   Mostly Cloudy
1:15 PM 78.8 °F - 64.4 °F 61% 30.04 in 10.0 mi NW 8.1 mph - N/A   Mostly Cloudy
1:35 PM 78.8 °F - 66.2 °F 65% 30.04 in 10.0 mi West 10.4 mph - N/A   Overcast
1:55 PM 80.6 °F 82.7 °F 66.2 °F 61% 30.04 in 10.0 mi West 8.1 mph - N/A   Mostly Cloudy
2:15 PM 80.6 °F 82.7 °F 66.2 °F 61% 30.03 in 10.0 mi West 9.2 mph - N/A   Overcast
2:35 PM 80.6 °F 82.7 °F 66.2 °F 61% 30.03 in 10.0 mi WNW 8.1 mph - N/A   Overcast
2:55 PM 82.4 °F 84.6 °F 66.2 °F 58% 30.02 in 10.0 mi West 8.1 mph - N/A   Mostly Cloudy
3:35 PM 82.4 °F 84.6 °F 66.2 °F 58% 30.01 in 10.0 mi West 13.8 mph 19.6 mph N/A   Mostly Cloudy
3:55 PM 82.4 °F 84.6 °F 66.2 °F 58% 30.00 in 10.0 mi West 13.8 mph 19.6 mph N/A   Scattered Clouds
4:15 PM 82.4 °F 84.6 °F 66.2 °F 58% 30.00 in 10.0 mi West 13.8 mph 19.6 mph N/A   Scattered Clouds
4:55 PM 80.6 °F 82.3 °F 64.4 °F 58% 29.99 in 10.0 mi WNW 12.7 mph 18.4 mph N/A   Scattered Clouds
5:15 PM 78.8 °F - 64.4 °F 61% 29.99 in 10.0 mi WNW 13.8 mph 18.4 mph N/A   Mostly Cloudy
5:55 PM 80.6 °F 82.3 °F 64.4 °F 58% 29.97 in 10.0 mi WNW 10.4 mph 18.4 mph N/A   Scattered Clouds
6:15 PM 78.8 °F - 64.4 °F 61% 29.98 in 10.0 mi WNW 12.7 mph 23.0 mph N/A   Mostly Cloudy
6:35 PM 78.8 °F - 66.2 °F 65% 29.98 in 10.0 mi WNW 13.8 mph 18.4 mph N/A   Mostly Cloudy
7:15 PM 77.0 °F - 64.4 °F 65% 29.99 in 10.0 mi NW 13.8 mph - N/A   Scattered Clouds
7:35 PM 75.2 °F - 62.6 °F 65% 30.00 in 10.0 mi WNW 12.7 mph 20.7 mph N/A   Scattered Clouds
7:55 PM 73.4 °F - 60.8 °F 65% 30.01 in 10.0 mi WNW 11.5 mph 18.4 mph N/A   Scattered Clouds
8:15 PM 73.4 °F - 59.0 °F 61% 30.02 in 10.0 mi WNW 9.2 mph - N/A   Clear
8:35 PM 71.6 °F - 59.0 °F 64% 30.02 in 10.0 mi WNW 12.7 mph - N/A   Clear
8:55 PM 71.6 °F - 59.0 °F 64% 30.02 in 10.0 mi NW 5.8 mph - N/A   Clear